Regional Weather Roundup
Issued by NWS Sterling, VA

Home | Current Version | Previous Version | Text Only | Print | Product List | Glossary Off
Versions: 1 2 3 4 5 6 7 8 9 10 11 12 13 14 15 16 17 18 19 20 21 22 23 24 25 26 27 28 29 30 31 32 33 34 35 36 37 38 39 40 41 42 43 44 45 46 47 48 49 50

000
ASUS41 KLWX 300010
RWRLWX

REGIONAL WEATHER ROUNDUP
NATIONAL WEATHER SERVICE BALTIMORE MD/WASHINGTON DC
800 PM EDT SAT AUG 29 2015

Note: "FAIR" indicates few or no clouds below 12,000 feet
with no significant weather and/or obstructions to visibility.
 TC=TEMPERATURE CELSIUS

 * =Non NWS site. Station does not report precipitation (e.g. rain,
    snow, etc.), thunder, or fog.

DCZ001-MDZ009-015-VAZ040>042-051-053>054-300100-
WASHINGTON METRO

CITY           SKY/WX    TMP DP  RH WIND       PRES   REMARKS
WASHINGTON NAT CLOUDY    81  66  60 S12       30.10S
DULLES         MOCLDY    79  63  57 S7        30.09F
ANDREWS AFB    MOCLDY    77  65  68 SE8       30.10S
FT BELVOIR     MOCLDY    77  67  73 SE3       30.10R
QUANTICO       CLOUDY    78  67  68 S7        30.10S
COLLEGE PARK*  MOCLDY    82  61  47 S5        30.09S
LEESBURG*      MOCLDY    82  68  61 S14       30.10S
MANASSAS*      PTCLDY    79  66  65 S5        30.10S
GAITHERSBURG*  PTCLDY    81  61  50 S5        30.13S

$$

MDZ006>007-011-014-300100-
BALTIMORE METRO

CITY           SKY/WX    TMP DP  RH WIND       PRES   REMARKS
BWI AIRPORT    MOCLDY    76  64  66 SE6       30.09S
MD SCIENCE CTR   N/A     79  64  60 MISG      30.10S
MARTIN STATE   CLEAR     79  70  73 S9        30.11S
ANNAPOLIS      MOCLDY    77  63  61 S14G20    30.10S
FORT MEADE*    PTCLDY    73  64  73 SE6       30.12S

$$

MDZ012-015-019>023-300100-
MARYLAND EASTERN SHORE

CITY           SKY/WX    TMP DP  RH WIND       PRES   REMARKS
OCEAN CITY     MOCLDY    76  60  57 S6        30.14S
SALISBURY      MOCLDY    72  63  73 SE5       30.13S
BAY BRIDGE AP*   N/A     79  61  53 S8        30.10F
CAMBRIDGE*     CLOUDY    77  63  61 S5        30.12S

$$

MDZ017>025-300100-
SOUTHERN MARYLAND

CITY           SKY/WX    TMP DP  RH WIND       PRES   REMARKS
PATUXENT RIVER CLOUDY    74  63  68 S7        30.11F
ST INIGOES     CLOUDY    77  65  66 SE8       30.11S
LEONARDTOWN*   CLOUDY    73  61  64 CALM      30.13F

$$

MDZ003>005-300100-
NORTH CENTRAL MARYLAND

CITY           SKY/WX    TMP DP  RH WIND       PRES   REMARKS
FREDERICK*     CLEAR     81  66  61 CALM      30.11
HAGERSTOWN APT PTCLDY    82  62  50 S7        30.09S
WESTMINSTER*   PTCLDY    79  66  65 E5        30.11S

$$

MDZ501>502-300100-
WESTERN MARYLAND

CITY           SKY/WX    TMP DP  RH WIND       PRES   REMARKS
OAKLAND*       PTCLDY    68  55  64 S3        30.19F
CUMBERLAND*    PTCLDY    81  59  47 CALM      30.11S

$$

VAZ025>031-300100-
SHENANDOAH VALLEY

CITY           SKY/WX    TMP DP  RH WIND       PRES   REMARKS
WINCHESTER*    PTCLDY    79  63  57 SE5       30.10S
FRONT ROYAL*   CLOUDY    79  63  57 S3        30.08S
LURAY*         FAIR      77  61  57 S3        30.11S
NEW MARKET*    FAIR      78  64  63 CALM      30.08S
STAUNTON*      CLOUDY    80  61  52 S6        30.14S
WAYNESBORO*    FAIR      77  62  58 S5        30.14S

$$

WVZ021-048>050-054>055-300100-
EASTERN WEST VIRGINIA PANHANDLE

CITY           SKY/WX    TMP DP  RH WIND       PRES   REMARKS
MARTINSBURG    PTCLDY    77  64  64 SE3       30.09S
PETERSBURG*    MOCLDY    76  66  70 W5        30.10S

$$

VAZ036>039-050-300100-
CENTRAL FOOTHILLS

CITY           SKY/WX    TMP DP  RH WIND       PRES   REMARKS
CHARLOTTESVILL MOCLDY    77  63  61 S7        30.11S
CULPEPER*      CLOUDY    77  65  67 CALM      30.10S
ORANGE*        CLOUDY    77  64  65 CALM      30.12S
GORDONSVILLE*  FAIR      73  67  82 CALM      30.10S
WARRENTON*     FAIR      77  67  70 S3        30.10S

$$

VAZ055>057-300100-
NORTH AND CENTRAL PIEDMONT

CITY           SKY/WX    TMP DP  RH WIND       PRES   REMARKS
FREDERICKSBRG* CLOUDY    78  67  70 S5        30.09S
STAFFORD*      CLOUDY    73  66  77 CALM      30.14S

$$

NCZ024-NYZ072-PAZ021-071-VAZ022-071-300100-
OTHER REGIONAL OBSERVATIONS

CITY           SKY/WX    TMP DP  RH WIND       PRES   REMARKS
NEW YORK CITY  CLEAR     77  58  51 CALM      30.13S
PHILADELPHIA   PTCLDY    81  61  50 SW14      30.11R
PITTSBURGH     MOCLDY    80  61  52 S3        30.08S
ROANOKE        MOCLDY    77  60  55 S3        30.16S
RICHMOND       CLOUDY    78  64  61 SE7       30.12R
RALEIGH        CLOUDY    79  60  52 CALM      30.13R

$$

ANZ530>537-300100-
MARINE OBSERVATIONS

STATION/POSITION TIME  TEMP    WIND        PRES
                       AIR SEA DIR/SP/G
                 (UTC) (F)     (DEG/KT/KT) (MB)
THOMAS PT LIGHT  0000   78 79  170/ 20/ 21 1019.6F

$$



USA.gov is the U.S. government's official web portal to all federal, state and local government web resources and services.